Flag for Uzbekistan Weather past 2 weeks in Samarkand, Uzbekistan

Now
72 °F

Clear.


Feels Like: 77 °F
Forecast: 63 / 92 °F
Wind: 1 mph from North

Location: Samarkand

Current Time: Jun 2, 2015 at 10:44:03 PM

Latest Report: Jun 2, 2015 at 10:00 PM


Visibility: N/A

Pressure: 30.01 "Hg

Humidity: 44%

Dew point: 48 °F

Location of SamarkandLocation

Historic Weather in Samarkand — Graph

°F

Samarkand temperature yesterday

Maximum temperature yesterday: 90 °F (at 11:30 AM)
Minimum temperature yesterday: 61 °F (at 2:30 AM)
Average temperature yesterday: 78 °F

Past Weeks' High & Low Weather Summary

 TemperatureHumidityPressure
High90 °F (May 29, 3:30 PM)93% (May 25, 3:00 AM)30.12 "Hg (May 25, 3:00 AM)
Low46 °F (May 25, 3:00 AM)12% (May 31, 1:00 PM)29.77 "Hg (May 28, 3:30 PM)
Average72 °F38%29.97 "Hg
* Reported May 18 9:00 PM — Jun 2 9:00 PM, Samarkand, Weather by CustomWeather, © 2015

Note: Actual official high and low records may vary slightly from our data, if they occured in-between our weather recording intervals... More about our weather records

Advertising

Samarkand weather history for previous 24 hours

 ConditionsComfort  
Time TempWeatherWind HumidityBarometerVisibility
9:00 PM
Tue, Jun 2
75 °FClear.3 mph34%30.01 "HgN/A
8:00 PM77 °FClear.5 mph34%30.01 "HgN/A
7:30 PM81 °FClear.3 mph32%30.01 "HgN/A
7:00 PM82 °FClear.6 mph30%30.01 "HgN/A
6:30 PM84 °FClear.8 mph25%30.01 "HgN/A
6:00 PM86 °FClear.10 mph24%29.98 "HgN/A
5:30 PM88 °FClear.10 mph21%29.98 "HgN/A
5:00 PM88 °FClear.12 mph19%29.98 "HgN/A
4:30 PM88 °FClear.9 mph18%29.98 "HgN/A
4:00 PM90 °FClear.10 mph17%29.98 "HgN/A
3:30 PM90 °FClear.8 mph20%30.01 "HgN/A
3:00 PM90 °FClear.10 mph20%30.01 "HgN/A
2:30 PM88 °FClear.10 mph18%30.01 "HgN/A
2:00 PM90 °FClear.9 mph18%30.01 "HgN/A
1:30 PM90 °FClear.12 mph17%30.01 "HgN/A
1:00 PM88 °FClear.10 mph19%30.01 "HgN/A
12:30 PM88 °FClear.12 mph18%30.01 "HgN/A
12:00 PM88 °FClear.12 mph19%30.01 "HgN/A
11:30 AM86 °FClear.14 mph18%30.01 "HgN/A
11:00 AM86 °FClear.13 mph20%30.01 "HgN/A
10:30 AM86 °FClear.15 mph19%30.04 "HgN/A
10:00 AM82 °FClear.3 mph30%30.04 "HgN/A
9:30 AM82 °FClear.2 mph28%30.04 "HgN/A
9:00 AM79 °FClear.2 mph30%30.04 "HgN/A
8:00 AM75 °FClear.5 mph34%30.04 "HgN/A
7:30 AM73 °FClear.5 mph33%30.04 "HgN/A
7:00 AM70 °FClear.3 mph40%30.01 "HgN/A
6:30 AM66 °FClear.5 mph46%30.01 "HgN/A
6:00 AM64 °FClear.2 mph46%30.01 "HgN/A
5:30 AM63 °FClear.5 mph45%30.01 "HgN/A
5:00 AM61 °FClear.5 mph52%29.98 "HgN/A
4:30 AM61 °FClear.6 mph52%29.98 "HgN/A
4:00 AM59 °FClear.5 mph63%29.98 "HgN/A
3:30 AM61 °FClear.2 mph59%29.98 "HgN/A
3:00 AM61 °FClear.24 mph68%29.98 "HgN/A
2:00 AM64 °FClear.1 mph52%30.01 "HgN/A
1:30 AM63 °FClear.No wind56%29.98 "HgN/A
1:00 AM61 °FClear.No wind59%30.01 "HgN/A
12:30 AM64 °FClear.No wind49%30.01 "HgN/A
12:00 AM66 °FClear.1 mph46%30.01 "HgN/A
11:30 PM
Mon, Jun 1
68 °FClear.2 mph43%30.01 "HgN/A
11:00 PM64 °FClear.2 mph49%30.01 "HgN/A
10:30 PM70 °FClear.1 mph38%30.01 "HgN/A
10:00 PM70 °FClear.5 mph35%30.01 "HgN/A
Weather by CustomWeather, © 2015

See weather overviewHow to use our weather pages